Overview Statistics Trail Chart Weather Telemetry Raw packets
 

This is the latest recevied weather packets stored in our database for station/object N3LF. If no packets are shown the sender has not sent any weather packets the latest 10 day(s).

<< 52 53 54 55 56 57 58 >>
Time Temp. Humidity Pressure Rain* Wind** Luminosity Snow
1788267431 23.89° C 99% 1022.6 hPa 0 mm - 115 W/m² -
1788267126 23.89° C 99% 1022.5 hPa 0 mm - 103 W/m² -
1788266821 23.33° C 99% 1022.4 hPa 0 mm - 85 W/m² -
1788266521 23.33° C 99% 1022.5 hPa 0 mm - 82 W/m² -
1788266215 23.33° C 99% 1022.3 hPa 0 mm - 71 W/m² -
1788265915 22.78° C 99% 1022.4 hPa 0 mm - 63 W/m² -
1788265615 22.78° C 99% 1022.2 hPa 0 mm - 56 W/m² -
1788265309 22.78° C 99% 1022.3 hPa 0 mm - 50 W/m² -
1788265003 22.22° C 99% 1022.2 hPa 0 mm - 44 W/m² -
1788264699 22.78° C 99% 1022.2 hPa 0 mm - 39 W/m² -
1788264398 21.67° C 99% 1022 hPa 0 mm - 34 W/m² -
1788264093 21.67° C 99% 1022 hPa 0 mm - 29 W/m² -
1788263788 21.67° C 99% 1022 hPa 0 mm - 23 W/m² -
1788263485 21.67° C 99% 1022 hPa 0 mm - 20 W/m² -
1788263181 21.67° C 99% 1021.9 hPa 0 mm - 17 W/m² -
1788262880 21.67° C 99% 1021.9 hPa 0 mm - 14 W/m² -
1788262580 21.67° C 99% 1021.8 hPa 0 mm - 11 W/m² -
1788262275 21.11° C 99% 1021.7 hPa 0 mm - 8 W/m² -
1788261975 21.11° C 99% 1021.6 hPa 0 mm - 5 W/m² -
1788261669 21.11° C 99% 1021.6 hPa 0 mm - 3 W/m² -
1788261369 21.67° C 99% 1021.5 hPa 0 mm - 2 W/m² -
1788261067 21.67° C 99% 1021.2 hPa 0 mm - 1 W/m² -
1788260763 21.67° C 99% 1021.3 hPa 0 mm - 0 W/m² -
1788260466 21.67° C 99% 1021.3 hPa 0 mm - 0 W/m² -
1788260155 21.67° C 99% 1021.3 hPa 0 mm - 0 W/m² -

* Rain latest hour (hover to see other rain measurements)
** Current wind speed in m/s (hover to see current wind gust speed)